Hlavní strana
METAR-TAF:

METAR-TAF

Letiště :

Padova, Itálie

zeměpisná šířka: 45-23-45N, zeměpisná délka: 11-50-53E, výška: 13 m

Aktuální stav počasí

Zpráva byla vytvořena před 3 hodinami a 29 minutami, v 06:00 UTC
vítr z různých směrů 3 kt
Teplota 15°C
Vlhkost vzduchu 94%
Tlak 1019 hPa
Viditelnost 10 km a více
Oblačno až skoro zataženo ve výšce 6000 ft

METAR: LIPU 170600Z VRB03KT 9999 BKN060 15/14 Q1019

Čas: 11:29 (09:29 UTC)


TAF: chybějící

Stav a předpovědi počasí z více než 4 000 letišť (zprávy METAR a TAF).

Červené a žluté tečky na mapě představují dostupné meteorologické stanice.

Když kurzor umístíte na tečku, zobrazí se název stanice.

Pak kliknutím zobrazíte stav a předpověď počasí.

Chcete-li změnit mapu, kliknutím na zelené tlačítko se znaménkem +mapu přiblížíte, kliknutím na zelené tlačítko se znaménkem – mapu oddálíte a kliknutím na zelené šipky přejdete na sousední mapy.


METAR-TAF: